Weather observations for the past three days for
Sparta Upper Cumberland Regional Airport
Imperial (Metric)
Date Time (cdt) Wind (mph) Vis. (mi.) Weather Sky Cond. Temperature (ºF) Relative Humidity Wind Chill (°F) Heat Index (°F) Pressure Precipitation (in)
Air Dwpt 6 hour altimeter (in) sea level (mb) 1 hr 3 hr 6 hr
Max. Min.
15 03:35 Calm 8.00 A Few Clouds FEW050 64.4 64.4 100% 29.99 0.0
15 03:15 Calm 4.00 Fog/Mist FEW049 64.4 64.4 100% 29.98 0.0
15 02:55 Calm 7.00 A Few Clouds FEW048 64.4 64.4 100% 29.98 0.0
15 02:35 Calm 8.00 A Few Clouds FEW048 66.2 66.2 100% 29.98 0.0
15 02:15 Calm 8.00 Partly Cloudy SCT050 SCT055 66.2 66.2 100% 29.98 0.0
15 01:55 Calm 10.00 Partly Cloudy SCT050 SCT055 66.2 66.2 100% 29.99 0.0
15 01:15 Calm 10.00 Fair CLR 66.2 66.2 100% 29.98 0.0
15 00:55 Calm 10.00 Fair CLR 66.2 66.2 100% 29.98 0.0
15 00:35 Calm 10.00 Fair CLR 68 68 100% 29.99 0.0
15 00:15 Calm 10.00 A Few Clouds FEW055 68 68 100% 29.99 0.0
14 23:55 Calm 10.00 A Few Clouds FEW050 FEW060 68 68 100% 29.99 0.0
14 23:35 Calm 10.00 Mostly Cloudy BKN055 68 68 100% 29.99 0.0
14 23:15 Calm 10.00 Mostly Cloudy BKN060 69.8 68 94% 29.99 0.0
14 22:55 Calm 10.00 Overcast OVC060 69.8 69.8 100% 29.98 0.0
14 22:35 Calm 10.00 Overcast OVC065 69.8 69.8 100% 29.98 0.0
14 22:15 Calm 9.00 Overcast OVC065 69.8 69.8 100% 29.98 0.0
14 21:55 Calm 10.00 Overcast OVC070 69.8 69.8 100% 29.98 0.0
14 21:35 Calm 10.00 Partly Cloudy SCT065 69.8 68 94% 29.98 0.0
14 21:15 Calm 10.00 Fair CLR 69.8 68 94% 29.97 0.0
14 20:55 Calm 10.00 Fair CLR 71.6 68 88% 29.96 0.0
14 20:35 Calm 10.00 Fair CLR 73.4 68 83% 29.95 0.0
14 20:15 Calm 10.00 Fair CLR 75.2 69.8 83% 75 29.95 0.0
14 19:55 Calm 10.00 Fair CLR 77 69.8 79% 79 29.95 0.0
14 19:35 Calm 10.00 Fair CLR 82.4 69.8 66% 86 29.95 0.0
14 19:15 Calm 10.00 Fair CLR 84.2 71.6 66% 90 29.95 0.0
14 18:55 Calm 10.00 Fair CLR 87.8 69.8 55% 93 29.94 0.0
14 18:35 Calm 10.00 Fair CLR 87.8 68 52% 91 29.94 0.0
14 18:15 Calm 10.00 Fair CLR 89.6 68 49% 93 29.94 0.0
14 17:55 Calm 10.00 A Few Clouds FEW060 89.6 68 49% 93 29.93 0.0
14 17:35 W 6 10.00 Partly Cloudy SCT060 89.6 66.2 46% 92 29.93 0.0
14 17:15 Vrbl 5 10.00 Fair CLR 89.6 66.2 46% 92 29.94 0.0
14 16:55 W 5 10.00 Fair CLR 89.6 66.2 46% 92 29.94 0.0
14 16:35 Calm 10.00 Fair CLR 89.6 66.2 46% 92 29.94 0.0
14 16:15 Calm 10.00 Fair CLR 89.6 66.2 46% 92 29.94 0.0
14 15:55 W 6 10.00 Fair CLR 89.6 66.2 46% 92 29.94 0.0
14 15:35 Vrbl 3 10.00 Fair CLR 89.6 64.4 43% 91 29.94 0.0
14 15:15 Vrbl 5 10.00 Fair CLR 89.6 66.2 46% 92 29.94 0.0
14 14:55 Vrbl 5 10.00 Fair CLR 89.6 66.2 46% 92 29.94 0.0
14 14:35 Vrbl 5 10.00 Fair CLR 89.6 64.4 43% 91 29.95 0.0
14 14:15 Vrbl 3 10.00 Fair CLR 87.8 66.2 49% 90 29.95 0.0
14 13:55 S 8 10.00 Fair CLR 87.8 66.2 49% 90 29.96 0.0
14 13:35 S 7 10.00 Fair CLR 87.8 68 52% 91 29.97 0.0
14 13:15 Vrbl 3 10.00 Fair CLR 87.8 66.2 49% 90 29.98 0.0
14 12:55 W 7 10.00 Fair CLR 87.8 66.2 49% 90 29.99 0.0
14 12:35 Calm 10.00 Fair CLR 87.8 66.2 49% 90 29.99 0.0
14 12:15 Vrbl 6 10.00 Fair CLR 86 68 55% 89 29.99 0.0
14 11:55 Vrbl 5 10.00 Fair CLR 86 68 55% 89 30 0.0
14 11:35 Vrbl 5 G 12 10.00 Fair CLR 86 68 55% 89 30 0.0
14 11:15 W 8 10.00 Fair CLR 86 68 55% 89 30 0.0
14 10:55 Vrbl 3 10.00 Fair CLR 84.2 68 58% 87 30 0.0
14 10:35 Calm 10.00 A Few Clouds FEW032 84.2 71.6 66% 90 30 0.0
14 10:15 Calm 10.00 Fair CLR 82.4 69.8 66% 86 30.01 0.0
14 09:55 Calm 10.00 Fair CLR 82.4 69.8 66% 86 30 0.0
14 09:35 Calm 10.00 Fair CLR 80.6 71.6 74% 85 30.01 0.0
14 09:15 Calm 10.00 Fair CLR 80.6 71.6 74% 85 30.01 0.0
14 08:55 SW 5 10.00 Fair CLR 78.8 69.8 74% 81 30.02 0.0
14 08:35 Calm 10.00 Fair CLR 77 69.8 79% 79 30.03 0.0
14 08:15 S 3 10.00 Fair CLR 77 69.8 79% 79 30.02 0.0
14 07:55 Calm 10.00 Fair CLR 75.2 69.8 83% 75 30.02 0.0
14 07:35 Calm 10.00 Fair CLR 73.4 69.8 89% 30.02 0.0
14 07:15 Calm 10.00 Fair CLR 71.6 69.8 94% 30.03 0.0
14 06:55 Calm 10.00 Fair CLR 69.8 69.8 100% 30.02 0.0
14 06:15 Calm 5.00 Fog/Mist CLR 64.4 64.4 100% 30.02 0.0
14 05:55 Calm 1.75 Fog/Mist CLR 64.4 64.4 100% 30.01 0.0
14 05:35 Calm 0.15 Fog VV000 62.6 62.6 100% 30 0.0
14 05:15 Calm 1.25 Fog/Mist CLR 62.6 62.6 100% 30 0.0
14 04:55 Calm 4.00 Fog/Mist CLR 64.4 64.4 100% 30 0.0
14 04:35 Calm 4.00 Fog/Mist CLR 64.4 64.4 100% 29.99 0.0
14 04:15 Calm 8.00 Fair CLR 64.4 64.4 100% 29.97 0.0
14 03:55 Calm 0.50 Fog/Mist VV005 62.6 62.6 100% 29.97 0.0
14 03:35 Calm 3.00 Fog/Mist CLR 64.4 64.4 100% 29.99 0.0
14 03:15 Calm 2.50 Fog/Mist FEW050 64.4 64.4 100% 29.99 0.0
14 02:55 Calm 5.00 Fog/Mist CLR 64.4 64.4 100% 29.98 0.0
14 02:35 Calm 2.00 Fog/Mist CLR 62.6 62.6 100% 29.99 0.0
14 02:15 Calm 0.25 Fog SCT050 62.6 62.6 100% 29.99 0.0
14 01:55 Calm 3.00 Fog/Mist FEW050 64.4 64.4 100% 30 0.0
14 01:35 Calm 2.00 Fog/Mist FEW050 64.4 64.4 100% 29.99 0.0
14 01:15 Calm 7.00 Fair CLR 64.4 64.4 100% 30 0.0
14 00:55 Calm 7.00 Fair CLR 64.4 64.4 100% 30 0.0
14 00:35 Calm 6.00 Fog/Mist CLR 64.4 64.4 100% 30 0.0
14 00:15 Calm 8.00 A Few Clouds FEW055 66.2 66.2 100% 29.99 0.0
13 23:55 Calm 5.00 Fog/Mist CLR 66.2 66.2 100% 29.99 0.0
13 23:35 Calm 2.50 Fog/Mist FEW050 FEW055 66.2 66.2 100% 29.98 0.0
13 23:15 Calm 9.00 Mostly Cloudy FEW050 BKN055 66.2 66.2 100% 29.98 0.0
13 22:55 Calm 10.00 Mostly Cloudy BKN055 66.2 66.2 100% 29.98 0.0
13 22:35 Calm 8.00 Partly Cloudy SCT050 68 68 100% 29.99 0.0
13 22:15 Calm 10.00 Fair CLR 68 68 100% 29.98 0.0
13 21:55 Calm 10.00 Fair CLR 68 68 100% 29.98 0.0
13 21:35 Calm 9.00 Fair CLR 68 68 100% 29.97 0.0
13 21:15 Calm 10.00 Fair CLR 69.8 68 94% 29.96 0.0
13 20:55 Calm 10.00 Fair CLR 69.8 68 94% 29.96 0.0
13 20:35 Calm 10.00 Fair CLR 71.6 68 88% 29.96 0.0
13 20:15 Calm 10.00 Fair CLR 73.4 69.8 89% 29.95 0.0
13 19:55 Calm 10.00 Fair CLR 75.2 71.6 89% 75 29.95 0.0
13 19:35 Calm 10.00 Fair CLR 78.8 69.8 74% 81 29.95 0.0
13 19:15 Calm 10.00 Fair CLR 82.4 71.6 70% 87 29.96 0.0
13 18:55 Calm 10.00 Fair CLR 86 66.2 52% 88 29.96 0.0
13 18:35 W 3 10.00 Fair CLR 87.8 66.2 49% 90 29.96 0.0
13 18:15 Calm 10.00 Fair CLR 87.8 68 52% 91 29.96 0.0
13 17:55 W 5 10.00 Fair CLR 87.8 68 52% 91 29.96 0.0
13 17:35 SW 5 10.00 Fair CLR 87.8 68 52% 91 29.96 0.0
13 17:15 W 5 10.00 A Few Clouds FEW050 FEW060 87.8 66.2 49% 90 29.97 0.0
13 16:55 SW 5 10.00 A Few Clouds FEW050 87.8 68 52% 91 29.97 0.0
13 16:35 W 5 10.00 Mostly Cloudy BKN050 87.8 66.2 49% 90 29.97 0.0
13 16:15 NW 6 10.00 Overcast OVC050 87.8 68 52% 91 29.97 0.0
13 15:55 W 3 10.00 Mostly Cloudy SCT050 BKN065 BKN075 87.8 66.2 49% 90 29.98 0.0
13 15:35 SW 5 10.00 Mostly Cloudy BKN050 87.8 66.2 49% 90 29.98 0.0
13 15:15 Calm 10.00 Partly Cloudy SCT050 SCT060 87.8 66.2 49% 90 29.98 0.0
13 14:55 Vrbl 5 10.00 A Few Clouds FEW050 FEW055 FEW070 86 66.2 52% 88 29.98 0.0
13 14:35 Calm 10.00 Partly Cloudy SCT050 SCT060 SCT070 86 66.2 52% 88 29.98 0.0
13 14:15 Vrbl 3 10.00 A Few Clouds FEW049 FEW065 FEW075 87.8 68 52% 91 29.99 0.0
13 13:55 S 6 10.00 Partly Cloudy FEW047 FEW055 SCT075 86 66.2 52% 88 29.99 0.0
13 13:35 Calm 10.00 Mostly Cloudy FEW047 SCT060 BKN080 84.2 68 58% 87 30 0.0
13 13:15 Calm 10.00 Mostly Cloudy BKN060 BKN075 84.2 68 58% 87 30 0.0
13 12:55 Calm 10.00 Mostly Cloudy FEW045 SCT065 BKN075 86 68 55% 89 30.01 0.0
13 12:35 Calm 10.00 Mostly Cloudy SCT046 BKN050 84.2 66.2 55% 87 30.01 0.0
13 12:15 Vrbl 3 10.00 A Few Clouds FEW046 FEW060 86 66.2 52% 88 30.01 0.0
13 11:55 SE 3 10.00 A Few Clouds FEW049 FEW060 86 68 55% 89 30.01 0.0
13 11:35 SW 8 10.00 Fair CLR 84.2 68 58% 87 30.01 0.0
13 11:15 SW 5 G 14 10.00 Fair CLR 84.2 68 58% 87 30.02 0.0
13 10:55 SE 7 10.00 Fair CLR 84.2 68 58% 87 30.02 0.0
13 10:15 S 8 10.00 A Few Clouds FEW060 82.4 68 62% 85 30.03 0.0
13 09:55 S 8 10.00 Partly Cloudy SCT060 80.6 66.2 62% 83 30.03 0.0
13 09:35 S 6 10.00 Fair CLR 80.6 66.2 62% 83 30.03 0.0
13 09:15 Vrbl 6 10.00 A Few Clouds FEW065 78.8 66.2 65% 81 30.03 0.0
13 08:55 Calm 10.00 A Few Clouds FEW065 77 66.2 69% 79 30.03 0.0
13 08:35 Vrbl 3 10.00 A Few Clouds FEW060 75.2 64.4 69% 77 30.03 0.0
13 08:15 Calm 10.00 Fair CLR 73.4 66.2 78% 30.03 0.0
13 07:55 Calm 10.00 Fair CLR 71.6 64.4 78% 30.03 0.0
13 07:35 Calm 10.00 Fair CLR 69.8 64.4 83% 30.02 0.0
13 07:15 Calm 10.00 Fair CLR 66.2 64.4 94% 30.02 0.0
13 06:55 Calm 10.00 Fair CLR 64.4 62.6 94% 30.02 0.0
13 06:35 Calm 10.00 Fair CLR 60.8 60.8 100% 30.01 0.0
13 06:15 Calm 10.00 Fair CLR 60.8 60.8 100% 30 0.0
13 05:55 Calm 10.00 Fair CLR 57.2 57.2 100% 30 0.0
13 05:35 Calm 9.00 Fair CLR 57.2 57.2 100% 30 0.0
13 05:15 Calm 10.00 Fair CLR 57.2 57.2 100% 30 0.0
13 04:55 Calm 10.00 A Few Clouds FEW060 57.2 57.2 100% 29.99 0.0
13 04:35 Calm 10.00 A Few Clouds FEW060 59 59 100% 29.99 0.0
13 04:15 Calm 10.00 Partly Cloudy SCT055 SCT070 57.2 57.2 100% 29.99 0.0
13 03:55 Calm 1.75 Fog/Mist OVC060 57.2 57.2 100% 29.99 0.0
13 03:35 Calm 10.00 Mostly Cloudy BKN060 BKN070 59 59 100% 29.99 0.0
13 03:15 Calm 10.00 Overcast SCT055 OVC070 60.8 60.8 100% 29.99 0.0
13 02:55 Calm 10.00 Overcast SCT055 OVC070 59 59 100% 29.99 0.0
13 02:35 Calm 10.00 Overcast FEW050 OVC065 59 59 100% 29.99 0.0
13 02:15 Calm 10.00 Overcast FEW050 OVC070 59 59 100% 29.99 0.0
13 01:55 Calm 10.00 Overcast BKN050 BKN055 OVC070 57.2 57.2 100% 29.99 0.0
13 01:35 Calm 10.00 Overcast BKN050 OVC055 59 59 100% 29.98 0.0
13 01:15 Calm 8.00 Mostly Cloudy BKN050 BKN055 57.2 57.2 100% 29.98 0.0
13 00:55 Calm 10.00 Partly Cloudy SCT050 SCT060 57.2 57.2 100% 29.98 0.0
13 00:35 Calm 10.00 Partly Cloudy SCT050 SCT060 59 59 100% 29.99 0.0
13 00:15 Calm 10.00 Partly Cloudy SCT055 59 59 100% 29.99 0.0
12 23:55 Calm 10.00 Partly Cloudy SCT050 59 59 100% 30 0.0
12 23:35 Calm 10.00 Mostly Cloudy BKN050 BKN060 60.8 59 94% 30 0.0
12 23:15 Calm 10.00 Mostly Cloudy BKN050 BKN060 59 59 100% 30 0.0
12 22:55 Calm 10.00 Fair CLR 60.8 59 94% 30 0.0
12 22:35 Calm 0.75 Fog/Mist VV005 60.8 60.8 100% 30.01 0.0
12 22:15 Calm 0.75 Fog/Mist VV005 62.6 60.8 94% 30.01 0.0
12 21:55 Calm 0.15 Fog VV000 64.4 59 83% 30.01 0.0
12 21:35 Calm 1.00 Fog/Mist CLR 64.4 60.8 88% 30.01 0.0
12 21:15 Calm 0.50 Sky Obscured with Haze VV005 64.4 60.8 88% 30 0.0
12 20:55 N 5 0.75 Sky Obscured with Haze VV005 68 60.8 78% 30 0.0
12 20:35 N 3 7.00 Fair CLR 71.6 59 65% 30 0.0
12 20:15 N 5 10.00 Fair CLR 73.4 59 61% 30 0.0
12 19:55 N 3 10.00 Fair CLR 73.4 59 61% 30 0.0
12 19:35 NE 5 10.00 Fair CLR 75.2 62.6 65% 77 30 0.0
12 19:15 Calm 10.00 Fair CLR 77 62.6 61% 79 30 0.0
12 18:55 Calm 10.00 Fair CLR 77 62.6 61% 79 30 0.0
12 18:35 Vrbl 5 10.00 Fair CLR 77 62.6 61% 79 29.99 0.0
12 18:15 NW 3 10.00 Fair CLR 78.8 62.6 58% 80 29.99 0.0
12 17:55 Calm 10.00 Fair CLR 80.6 62.6 54% 82 29.98 0.0
12 17:35 NW 3 10.00 Fair CLR 80.6 60.8 51% 81 29.98 0.0
12 17:15 Calm 10.00 Fair CLR 80.6 60.8 51% 81 29.98 0.0
12 16:55 NW 6 10.00 Fair CLR 80.6 60.8 51% 81 29.99 0.0
12 16:35 N 5 10.00 Fair CLR 80.6 60.8 51% 81 29.99 0.0
12 16:15 Calm 10.00 Fair CLR 80.6 62.6 54% 82 29.99 0.0
12 15:55 NW 5 10.00 Fair CLR 80.6 60.8 51% 81 29.99 0.0
12 15:35 Vrbl 3 10.00 Fair CLR 82.4 60.8 48% 83 29.99 0.0
12 15:15 N 5 10.00 Fair CLR 82.4 60.8 48% 83 30 0.0
12 14:55 NW 3 10.00 Fair CLR 80.6 59 48% 81 30 0.0
12 14:35 NW 7 10.00 Fair CLR 82.4 60.8 48% 83 30 0.0
12 14:15 E 6 10.00 Fair CLR 80.6 59 48% 81 30.01 0.0
12 13:55 Calm 10.00 Fair CLR 80.6 59 48% 81 30.01 0.0
12 13:35 N 6 G 14 10.00 Fair CLR 80.6 59 48% 81 30.01 0.0
12 13:15 E 5 10.00 Fair CLR 80.6 57.2 45% 81 30.02 0.0
12 12:35 SE 6 10.00 Fair CLR 78.8 55.4 45% 79 30.03 0.0
12 12:15 Calm 10.00 Fair CLR 78.8 55.4 45% 79 30.04 0.0
12 11:55 Calm 10.00 Fair CLR 78.8 57.2 48% 80 30.04 0.0
12 11:35 Calm 10.00 Fair CLR 77 57.2 51% 79 30.05 0.0
12 11:15 Calm 10.00 Fair CLR 77 57.2 51% 79 30.05 0.0
12 10:55 Vrbl 3 10.00 Fair CLR 77 57.2 51% 79 30.05 0.0
12 10:35 E 5 10.00 Fair CLR 75.2 57.2 54% 78 30.05 0.0
12 10:15 Calm 10.00 Fair CLR 75.2 57.2 54% 78 30.05 0.0
12 09:35 Calm 10.00 Fair CLR 71.6 59 65% 30.05 0.0
12 09:15 Calm 10.00 Fair CLR 69.8 59 69% 30.06 0.0
12 08:55 Calm 10.00 Fair CLR 68 57.2 69% 30.05 0.0
12 08:35 Calm 10.00 Fair CLR 66.2 59 78% 30.05 0.0
12 08:15 Calm 10.00 Fair CLR 64.4 57.2 78% 30.05 0.0
12 07:55 Calm 10.00 Fair CLR 62.6 57.2 83% 30.05 0.0
12 07:35 Calm 10.00 Fair CLR 60.8 57.2 88% 30.05 0.0
12 07:15 Calm 10.00 Fair CLR 57.2 57.2 100% 30.04 0.0
12 06:55 Calm 10.00 Fair CLR 55.4 55.4 100% 30.04 0.0
12 06:35 Calm 10.00 Fair CLR 53.6 53.6 100% 30.04 0.0
12 06:15 Calm 10.00 Fair CLR 51.8 51.8 100% 30.03 0.0
12 05:55 Calm 9.00 Fair CLR 50 50 100% 30.03 0.0
12 05:35 Calm 6.00 Fog/Mist CLR 48.2 48.2 100% 30.03 0.0
12 04:55 Calm 1.25 Fog/Mist CLR 48.2 48.2 100% 30.02 0.0
12 04:35 Calm 4.00 Fog/Mist CLR 48.2 48.2 100% 30.02 0.0
12 04:15 Calm 3.00 Fog/Mist CLR 50 50 100% 30.02 0.0
Date Time (cdt) Wind (mph) Vis. (mi.) Weather Sky Cond. Air Dwpt Max. Min. Relative Humidity Wind Chill (°F) Heat Index (°F) altimeter (in) sea level (mb) 1 hr 3 hr 6 hr
6 hour
Temperature (ºF) Pressure Precipitation (in)